Overview Statistics Trail Chart Weather Telemetry Raw packets
 

This is the latest recevied weather packets stored in our database for station/object KBTL-WX. If no packets are shown the sender has not sent any weather packets the latest 10 day(s).

<< 1 2 3 4 5 >>
Time Temp. Humidity Pressure Rain* Wind** Luminosity Snow
1777925719 23.33° C 43% 968.9 hPa 0 mm - - -
1777924836 22.78° C 39% 968.4 hPa 0 mm - - -
1777923919 23.33° C 36% 969.8 hPa 0 mm - - -
1777923036 22.78° C 36% 969.8 hPa 0 mm - - -
1777922119 22.78° C 36% 969.8 hPa 0 mm - - -
1777921241 22.78° C 36% 969.8 hPa 0 mm - - -
1777920315 22.22° C 32% 970.6 hPa 0 mm - - -
1777919437 22.78° C 30% 970.2 hPa 0 mm - - -
1777918519 22.78° C 30% 970.2 hPa 0 mm - - -
1777917642 22.78° C 30% 970.2 hPa 0 mm - - -
1777916719 22.22° C 35% 971.4 hPa 0 mm - - -
1777915830 22.22° C 36% 971 hPa 0 mm - - -
1777914918 21.67° C 36% 971 hPa 0 mm - - -
1777914039 21.67° C 32% 970.8 hPa 0 mm - - -
1777913118 21.11° C 36% 971.5 hPa 0 mm - - -
1777912229 20.56° C 36% 971.5 hPa 0 mm - - -
1777911318 20.56° C 36% 971.5 hPa 0 mm - - -
1777910441 20.56° C 36% 971.5 hPa 0 mm - - -
1777909518 20° C 50% 971.8 hPa 0 mm - - -
1777908635 18.89° C 50% 971.7 hPa 0 mm - - -
1777907719 18.33° C 50% 971.7 hPa 0 mm - - -
1777906843 17.78° C 50% 971.7 hPa 0 mm - - -
1777905918 17.22° C 63% 971.8 hPa 0 mm - - -
1777905033 16.67° C 61% 972.3 hPa 0 mm - - -
1777904114 15.56° C 61% 972.4 hPa 0 mm - - -

* Rain latest hour (hover to see other rain measurements)
** Current wind speed in m/s (hover to see current wind gust speed)